GW2597 Weather Reports


time (UTC)temp
F
wind
direction
speed
knots
gust
knots
rain 1hr
in
rain 24hr
in
rain mn
in
humidity
%
barometer
mb
20260507070104 48 306 2.6 3.5 0.00 0.00 0.00 88 1008.3
20260507065600 48 294 2.6 2.6 0.00 0.00 0.00 88 1008.8
20260507065057 48 294 3.5 3.5 0.00 0.00 0.00 88 1008.3
20260507064555 49 306 1.7 1.7 0.00 0.00 0.00 87 1008.3
20260507064054 49 270 4.3 4.3 0.00 0.00 0.00 87 1008.3
20260507063550 49 336 2.6 2.6 0.00 0.00 0.00 87 1009.1
20260507063048 49 312 2.6 2.6 0.00 0.00 0.00 87 1008.3
20260507062544 49 306 3.5 3.5 0.00 0.00 0.00 87 1008.0
20260507062042 49 300 4.3 5.2 0.00 0.00 0.00 87 1008.3
20260507061539 49 324 3.5 3.5 0.00 0.00 0.00 87 1008.3
20260507061037 49 300 3.5 4.3 0.00 0.00 0.00 88 1008.8
20260507060535 49 276 3.5 3.5 0.00 0.00 0.00 89 1008.8
20260507060031 49 282 3.5 3.5 0.00 0.00 0.00 89 1008.3
20260507055526 49 270 1.7 1.7 0.00 0.00 0.00 89 1008.3
20260507055022 49 294 1.7 1.7 0.00 0.00 0.00 89 1009.1
20260507054518 49 282 1.7 1.7 0.00 0.00 0.00 89 1009.1
20260507054015 49 282 2.6 2.6 0.00 0.00 0.00 89 1008.8
20260507053514 49 288 1.7 1.7 0.00 0.00 0.00 89 1008.8
20260507053012 49 282 1.7 1.7 0.00 0.00 0.00 89 1008.8
20260507052509 49 294 1.7 1.7 0.00 0.00 0.00 89 1009.1
20260507052006 49 300 2.6 2.6 0.00 0.00 0.00 89 1009.1
20260507051504 49 294 2.6 2.6 0.00 0.00 0.00 89 1009.1
20260507051000 49 306 2.6 3.5 0.00 0.00 0.00 90 1008.8
20260507050456 49 294 1.7 1.7 0.00 0.00 0.00 90 1009.1
20260507045953 49 300 2.6 2.6 0.00 0.00 0.00 90 1008.8
20260507045450 49 306 2.6 2.6 0.00 0.00 0.00 89 1008.8
20260507044948 49 312 1.7 1.7 0.00 0.00 0.00 89 1009.1
20260507044444 50 312 1.7 1.7 0.00 0.00 0.00 89 1009.1
20260507043940 50 318 0.9 0.9 0.00 0.00 0.00 89 1008.8
20260507043436 50 18 0.0 0.0 0.00 0.00 0.00 89 1008.8
20260507042933 50 318 0.0 0.0 0.00 0.00 0.00 90 1009.1
20260507042430 50 336 2.6 2.6 0.00 0.00 0.00 90 1009.1
20260507041925 51 312 1.7 1.7 0.00 0.00 0.00 90 1009.1
20260507041422 51 342 3.5 3.5 0.00 0.00 0.00 90 1009.1
20260507040920 51 318 1.7 1.7 0.00 0.00 0.00 90 1009.1
20260507040415 51 300 1.7 1.7 0.00 0.00 0.00 90 1008.8
20260507035911 51 312 1.7 1.7 0.01 0.17 0.17 90 1008.8
20260507035408 51 306 1.7 1.7 0.01 0.17 0.17 89 1008.8
20260507034905 52 330 1.7 1.7 0.01 0.17 0.17 90 1008.8
20260507034401 52 312 1.7 1.7 0.01 0.17 0.17 91 1008.3
20260507033859 52 294 2.6 2.6 0.01 0.17 0.17 91 1008.8
20260507033358 52 294 2.6 3.5 0.01 0.17 0.17 92 1008.8
20260507032854 53 300 2.6 2.6 0.01 0.17 0.17 91 1008.3
20260507032351 53 296 2.6 2.6 0.01 0.17 0.17 91 1008.3
20260507031847 53 300 3.5 3.5 0.01 0.17 0.17 91 1008.3
20260507031344 53 306 3.5 3.5 0.01 0.17 0.17 91 1008.0
20260507030840 53 312 2.6 2.6 0.01 0.17 0.17 91 1007.6
20260507030338 54 300 4.3 5.2 0.01 0.17 0.17 91 1008.0
20260507025834 54 306 5.2 5.2 0.01 0.15 0.15 90 1008.0
20260507025332 55 312 2.6 2.6 0.01 0.15 0.15 91 1008.0
20260507024830 55 342 3.5 4.3 0.01 0.15 0.15 91 1008.3
20260507024327 56 306 2.6 2.6 0.00 0.14 0.14 91 1008.0
20260507023822 56 294 5.2 5.2 0.00 0.14 0.14 91 1008.0
20260507023319 56 294 2.6 2.6 0.00 0.14 0.14 90 1008.0
20260507022817 56 306 3.5 3.5 0.00 0.14 0.14 91 1008.0
20260507022313 57 300 3.5 3.5 0.00 0.14 0.14 91 1007.6
20260507021809 57 300 1.7 1.7 0.00 0.14 0.14 92 1007.6
20260507021305 57 312 2.6 2.6 0.00 0.14 0.14 94 1007.6
20260507020803 58 318 0.0 0.0 0.00 0.14 0.14 95 1007.6
20260507020259 58 346 0.0 0.0 0.00 0.14 0.14 95 1007.6
20260507015757 58 346 0.0 0.0 0.00 0.14 0.14 95 1007.3
20260507015254 58 346 0.0 0.0 0.00 0.14 0.14 95 1007.3
20260507014751 58 346 0.0 0.0 0.00 0.14 0.14 95 1007.3
20260507014247 58 346 0.0 0.0 0.00 0.14 0.14 95 1007.3
20260507013744 58 346 0.0 0.0 0.00 0.14 0.14 95 1007.0
20260507013241 58 346 0.0 0.0 0.00 0.14 0.14 95 1007.3
20260507012738 58 346 0.0 0.0 0.00 0.14 0.14 95 1007.3
20260507012233 58 346 0.0 0.0 0.00 0.14 0.14 95 1007.0
20260507011731 58 346 1.7 1.7 0.00 0.14 0.14 95 1007.3
20260507011228 58 348 0.0 0.0 0.00 0.14 0.14 95 1007.3
20260507010722 58 348 0.0 0.0 0.00 0.14 0.14 95 1007.3
20260507010218 58 0 0.0 0.0 0.00 0.14 0.14 95 1007.3
20260507005716 58 0 0.0 0.0 0.00 0.14 0.14 95 1007.3
20260507005212 58 0 0.0 0.0 0.00 0.14 0.14 95 1007.3
20260507004709 58 354 0.0 0.0 0.00 0.14 0.14 95 1007.3
20260507004206 58 354 0.0 0.0 0.00 0.14 0.14 95 1007.3
20260507003702 58 354 0.0 0.0 0.00 0.14 0.14 95 1007.0
20260507003158 58 354 0.0 0.0 0.00 0.14 0.14 95 1006.6
20260507002654 58 354 0.0 0.0 0.00 0.14 0.14 95 1006.6
20260507002150 58 0 0.0 0.0 0.00 0.14 0.14 95 1007.0
20260507001647 58 0 0.0 0.0 0.00 0.14 0.14 95 1007.0
20260507001144 58 336 0.0 0.0 0.00 0.14 0.14 95 1007.0
20260507000641 58 336 0.0 0.0 0.00 0.14 0.14 95 1007.0
20260507000136 58 6 0.0 0.0 0.00 0.14 0.14 95 1006.6
20260506235634 58 6 0.0 0.0 0.00 0.14 0.14 95 1007.0
20260506235133 58 6 0.0 0.0 0.00 0.14 0.14 95 1006.6
20260506234631 58 18 0.0 0.0 0.00 0.14 0.14 95 1006.6
20260506234128 58 0 0.0 0.0 0.00 0.14 0.14 95 1007.0
20260506233625 58 36 0.0 0.0 0.00 0.14 0.14 94 1006.3
20260506233122 58 36 0.0 0.0 0.00 0.14 0.14 94 1006.6
20260506232618 58 264 0.0 0.0 0.00 0.14 0.14 94 1006.6
20260506232114 58 264 0.0 0.0 0.00 0.14 0.14 94 1006.6
20260506231611 58 162 0.0 0.0 0.00 0.14 0.14 94 1007.0
20260506231109 58 126 0.0 0.0 0.00 0.14 0.14 94 1006.6
20260506230606 58 174 0.0 0.0 0.00 0.14 0.14 94 1007.0
20260506230103 58 180 0.0 0.0 0.00 0.14 0.14 94 1007.0
20260506225559 58 198 0.0 0.0 0.00 0.14 0.14 94 1007.0
20260506225056 58 198 0.0 0.0 0.00 0.14 0.14 94 1007.0
20260506224553 58 198 0.0 0.0 0.00 0.14 0.14 94 1007.0
20260506224049 58 198 1.7 1.7 0.00 0.14 0.14 94 1007.0
20260506223545 58 198 0.0 0.0 0.00 0.14 0.14 94 1007.0
20260506223042 58 6 0.0 0.0 0.00 0.14 0.14 94 1007.0
20260506222539 59 6 0.0 0.0 0.00 0.14 0.14 94 1007.0
20260506222035 59 12 1.7 1.7 0.00 0.14 0.14 94 1007.3
20260506221533 59 12 0.0 0.0 0.00 0.14 0.14 94 1007.0
20260506221031 59 12 0.0 0.0 0.00 0.14 0.14 94 1007.3
20260506220526 59 14 0.0 0.0 0.00 0.14 0.14 94 1007.0
20260506220022 59 14 0.0 0.0 0.00 0.14 0.14 94 1007.3
20260506215519 59 14 0.0 0.0 0.01 0.14 0.14 94 1007.0
20260506215015 59 14 0.0 0.0 0.01 0.14 0.14 94 1007.3
20260506214512 59 18 0.0 0.0 0.01 0.14 0.14 94 1007.0
20260506214009 59 6 0.0 0.0 0.01 0.14 0.14 94 1007.3
20260506213507 59 6 0.0 0.0 0.01 0.14 0.14 94 1007.0
20260506213004 59 297 0.0 0.0 0.01 0.14 0.14 94 1007.0
20260506212500 59 48 0.0 0.0 0.00 0.12 0.12 94 1007.0
20260506211955 59 48 0.0 0.0 0.00 0.12 0.12 94 1007.0
20260506211451 59 324 0.0 0.0 0.00 0.12 0.12 94 1007.3
20260506210949 59 342 0.0 0.0 0.00 0.12 0.12 94 1007.3
20260506210445 59 328 0.0 0.0 0.00 0.12 0.12 94 1007.3
20260506205942 59 324 1.7 1.7 0.03 0.12 0.12 94 1007.3
20260506205438 60 48 0.0 0.0 0.01 0.11 0.11 94 1007.3
20260506204934 60 264 0.0 0.0 0.01 0.11 0.11 93 1007.3
20260506204432 60 262 0.9 0.9 0.01 0.11 0.11 93 1007.6
20260506203930 60 294 0.0 0.0 0.01 0.11 0.11 93 1007.3
20260506203427 60 252 0.0 0.0 0.01 0.11 0.11 93 1007.6
20260506202924 60 354 0.0 0.0 0.01 0.11 0.11 93 1007.6
20260506202421 60 6 0.0 0.0 0.01 0.11 0.11 93 1007.3
20260506201917 60 352 0.0 0.0 0.00 0.09 0.09 93 1007.6
20260506201415 60 352 0.0 0.0 0.00 0.09 0.09 93 1007.6
20260506200911 61 312 0.9 0.9 0.00 0.09 0.09 93 1007.6
20260506200407 60 318 0.0 0.0 0.00 0.09 0.09 92 1007.6
20260506195904 60 6 0.0 0.0 0.01 0.09 0.09 92 1008.0
20260506195401 60 186 0.0 0.0 0.01 0.09 0.09 92 1008.0
20260506194858 61 108 0.0 0.0 0.01 0.09 0.09 92 1008.0
20260506194355 60 306 0.0 0.0 0.00 0.07 0.07 92 1008.0
20260506193852 61 282 1.7 1.7 0.00 0.07 0.07 92 1008.0
20260506193349 61 300 2.6 2.6 0.00 0.07 0.07 92 1008.0
20260506192845 61 228 0.0 0.0 0.00 0.07 0.07 92 1008.0
20260506192342 61 234 0.0 0.0 0.00 0.07 0.07 92 1008.0
20260506191839 61 312 1.7 1.7 0.00 0.07 0.07 92 1008.0
20260506191335 61 306 0.0 0.0 0.00 0.07 0.07 92 1007.6
20260506190832 61 306 0.0 0.0 0.00 0.07 0.07 92 1007.6
20260506190328 61 306 0.0 0.0 0.00 0.07 0.07 92 1007.6
20260506185826 61 48 0.0 0.0 0.04 0.07 0.07 92 1008.0
20260506185322 61 48 0.0 0.0 0.04 0.07 0.07 92 1008.0
20260506184820 61 264 0.0 0.0 0.04 0.07 0.07 92 1008.0
20260506184317 60 264 0.0 0.0 0.04 0.07 0.07 92 1008.3
20260506183814 60 264 0.0 0.0 0.03 0.06 0.06 91 1008.3
20260506183309 60 264 1.7 1.7 0.03 0.06 0.06 91 1008.3
20260506182806 61 264 0.0 0.0 0.03 0.06 0.06 91 1008.8
20260506182306 61 264 0.0 0.0 0.01 0.04 0.04 90 1008.8
20260506181801 61 264 0.0 0.0 0.01 0.04 0.04 89 1008.3
20260506181259 61 264 1.7 1.7 0.01 0.04 0.04 89 1008.8
20260506180756 61 264 2.6 2.6 0.00 0.03 0.03 88 1008.8
20260506180252 61 270 1.7 1.7 0.00 0.03 0.03 87 1009.1
20260506175748 62 276 1.7 1.7 0.01 0.01 0.01 86 1008.8
20260506175245 62 282 2.6 2.6 0.01 0.01 0.01 85 1009.1
20260506174743 63 276 2.6 2.6 0.00 0.00 0.00 82 1009.1
20260506174239 64 270 3.5 3.5 0.00 0.00 0.00 78 1009.1
20260506173737 65 270 2.6 2.6 0.00 0.00 0.00 74 1009.1
20260506173234 66 276 2.6 3.5 0.00 0.00 0.00 72 1009.1
20260506172731 67 282 3.5 3.5 0.00 0.00 0.00 70 1008.8
20260506172227 67 282 3.5 4.3 0.00 0.00 0.00 66 1008.8
20260506171725 68 270 1.7 1.7 0.00 0.00 0.00 65 1008.3
20260506171222 69 246 4.3 5.2 0.00 0.00 0.00 64 1008.8
20260506170719 69 282 3.5 3.5 0.00 0.00 0.00 63 1008.3
20260506170216 69 278 4.3 4.3 0.00 0.00 0.00 62 1008.3
20260506165714 69 290 3.5 3.5 0.00 0.00 0.00 63 1008.8
20260506165211 69 234 1.7 1.7 0.00 0.00 0.00 64 1008.8
20260506164708 69 264 2.6 3.5 0.00 0.00 0.00 65 1009.1
20260506164205 69 348 3.5 3.5 0.00 0.00 0.00 66 1008.8
20260506163701 69 306 0.0 0.0 0.00 0.00 0.00 66 1009.1
20260506163157 69 270 0.9 0.9 0.00 0.00 0.00 66 1009.1
20260506162653 68 346 1.7 1.7 0.00 0.00 0.00 68 1009.1
20260506162150 68 324 1.7 1.7 0.00 0.00 0.00 68 1009.1
20260506161647 69 341 0.0 0.0 0.00 0.00 0.00 68 1009.1
20260506161144 69 324 2.6 2.6 0.00 0.00 0.00 67 1009.1
20260506160642 69 0 0.0 0.0 0.00 0.00 0.00 67 1009.1
20260506160139 70 0 1.7 1.7 0.00 0.00 0.00 65 1009.4
20260506155637 69 15 0.0 0.0 0.00 0.00 0.00 68 1009.4
20260506155134 68 342 0.0 0.0 0.00 0.00 0.00 70 1009.8
20260506153236 68 354 1.7 1.7 0.00 0.00 0.00 69 1009.8
20260506152733 68 354 0.0 0.0 0.00 0.00 0.00 69 1010.1
20260506152230 69 48 0.0 0.0 0.00 0.00 0.00 69 1010.1
20260506151730 69 342 2.6 2.6 0.00 0.00 0.00 68 1010.1
20260506151225 68 342 0.0 0.0 0.00 0.00 0.00 68 1010.1
20260506150722 68 7 0.0 0.0 0.00 0.00 0.00 68 1010.5
20260506150219 68 288 1.7 1.7 0.00 0.00 0.00 68 1010.5
20260506145716 68 270 0.0 0.0 0.00 0.00 0.00 68 1010.1
20260506145213 68 251 0.0 0.0 0.00 0.00 0.00 69 1009.8
20260506144710 67 297 2.6 3.5 0.00 0.00 0.00 69 1010.1
20260506144207 67 300 0.0 0.0 0.00 0.00 0.00 69 1010.1
20260506143705 68 290 1.7 1.7 0.00 0.00 0.00 70 1010.1
20260506143202 68 291 3.5 3.5 0.00 0.00 0.00 69 1010.5
20260506142701 68 342 1.7 1.7 0.00 0.00 0.00 67 1010.1
20260506142158 67 306 0.0 0.0 0.00 0.00 0.00 69 1010.1
20260506141656 67 321 0.0 0.0 0.00 0.00 0.00 72 1010.1
20260506141154 67 270 0.0 0.0 0.00 0.00 0.00 71 1010.1
20260506140651 66 24 0.9 0.9 0.00 0.00 0.00 72 1010.1
20260506140148 66 330 0.0 0.0 0.00 0.00 0.00 74 1009.8
20260506135645 65 348 0.0 0.0 0.00 0.00 0.00 74 1009.8
20260506135141 65 348 0.0 0.0 0.00 0.00 0.00 76 1010.1
20260506134638 65 12 1.7 1.7 0.00 0.00 0.00 75 1010.1
20260506134134 64 300 0.0 0.0 0.00 0.00 0.00 76 1010.5
20260506133631 64 36 0.0 0.0 0.00 0.00 0.00 77 1010.5
20260506133128 64 317 0.0 0.0 0.00 0.00 0.00 77 1010.5
20260506132626 64 4 0.0 0.0 0.00 0.00 0.00 77 1010.5
20260506132122 64 120 0.0 0.0 0.00 0.00 0.00 78 1010.5
20260506131620 63 312 1.7 1.7 0.00 0.00 0.00 78 1010.5
20260506131116 63 288 0.0 0.0 0.00 0.00 0.00 79 1010.5
20260506130613 63 288 0.0 0.0 0.00 0.00 0.00 79 1010.5
20260506130110 63 36 0.0 0.0 0.00 0.00 0.00 79 1010.8
20260506125609 63 36 0.0 0.0 0.00 0.00 0.00 80 1010.5
20260506125106 63 330 0.0 0.0 0.00 0.00 0.00 80 1010.5
20260506124603 62 330 0.9 0.9 0.00 0.00 0.00 80 1010.5
20260506124101 62 297 0.0 0.0 0.00 0.00 0.00 80 1010.5
20260506123558 62 297 0.0 0.0 0.00 0.00 0.00 80 1010.5
20260506123057 62 317 0.0 0.0 0.00 0.00 0.00 80 1010.8
20260506122553 61 340 0.0 0.0 0.00 0.00 0.00 81 1010.5
20260506122051 61 336 1.7 1.7 0.00 0.00 0.00 81 1010.5
20260506121549 60 294 0.0 0.0 0.00 0.00 0.00 81 1010.5
20260506121044 60 294 0.9 0.9 0.00 0.00 0.00 82 1010.8
20260506120543 60 294 0.0 0.0 0.00 0.00 0.00 81 1010.8
20260506120040 60 324 0.0 0.0 0.00 0.00 0.00 81 1010.8
20260506115538 60 324 0.0 0.0 0.00 0.00 0.00 81 1010.8
20260506115036 60 78 1.7 1.7 0.00 0.00 0.00 82 1010.8
20260506114533 59 24 0.0 0.0 0.00 0.00 0.00 83 1010.8
20260506114032 59 24 0.0 0.0 0.00 0.00 0.00 83 1011.1
20260506113529 59 306 0.0 0.0 0.00 0.00 0.00 84 1011.1
20260506113026 59 306 0.0 0.0 0.00 0.00 0.00 84 1010.8
20260506112522 58 306 0.0 0.0 0.00 0.00 0.00 84 1011.1
20260506112020 58 222 0.0 0.0 0.00 0.00 0.00 84 1011.1
20260506111518 58 222 0.0 0.0 0.00 0.00 0.00 84 1011.1
20260506111015 58 222 0.0 0.0 0.00 0.00 0.00 84 1011.1
20260506110513 58 222 0.0 0.0 0.00 0.00 0.00 84 1010.8
20260506110010 57 222 0.0 0.0 0.00 0.00 0.00 85 1010.8
20260506105505 57 222 0.0 0.0 0.00 0.00 0.00 85 1011.1
20260506105003 56 222 0.0 0.0 0.00 0.00 0.00 86 1011.1
20260506104501 56 222 0.0 0.0 0.00 0.00 0.00 86 1011.1
20260506103959 56 222 0.0 0.0 0.00 0.00 0.00 86 1011.1
20260506103455 56 222 0.0 0.0 0.00 0.00 0.00 86 1011.1
20260506102952 56 222 0.0 0.0 0.00 0.00 0.00 86 1011.1
20260506102450 55 222 0.0 0.0 0.00 0.00 0.00 86 1010.8
20260506101947 55 222 0.0 0.0 0.00 0.00 0.00 86 1010.8
20260506101444 56 216 0.0 0.0 0.00 0.00 0.00 86 1010.8
20260506100941 56 216 0.0 0.0 0.00 0.00 0.00 85 1010.8
20260506100439 55 216 0.0 0.0 0.00 0.00 0.00 85 1011.1
20260506095937 55 216 0.0 0.0 0.00 0.00 0.00 86 1010.8
20260506095436 55 216 0.0 0.0 0.00 0.00 0.00 85 1010.8
20260506094931 55 216 0.0 0.0 0.00 0.00 0.00 85 1010.8
20260506094430 55 216 0.0 0.0 0.00 0.00 0.00 85 1011.1
20260506093927 55 216 0.0 0.0 0.00 0.00 0.00 85 1011.1
20260506093425 56 216 0.0 0.0 0.00 0.00 0.00 84 1010.8
20260506092923 56 216 0.0 0.0 0.00 0.00 0.00 84 1010.8
20260506092420 56 216 0.0 0.0 0.00 0.00 0.00 84 1010.5
20260506091916 56 216 0.0 0.0 0.00 0.00 0.00 83 1010.8
20260506091415 56 216 0.0 0.0 0.00 0.00 0.00 83 1010.8
20260506090912 56 204 0.0 0.0 0.00 0.00 0.00 83 1010.8
20260506090409 56 204 0.0 0.0 0.00 0.00 0.00 83 1010.8
20260506085906 56 204 0.0 0.0 0.00 0.00 0.00 83 1010.8
20260506085403 56 204 0.0 0.0 0.00 0.00 0.00 83 1010.8
20260506084859 56 204 0.0 0.0 0.00 0.00 0.00 82 1011.1
20260506084355 56 204 0.0 0.0 0.00 0.00 0.00 82 1010.8
20260506083852 56 204 0.0 0.0 0.00 0.00 0.00 81 1010.8
20260506083350 57 204 0.0 0.0 0.00 0.00 0.00 81 1010.8
20260506082847 57 204 0.0 0.0 0.00 0.00 0.00 80 1010.8
20260506082344 58 204 0.0 0.0 0.00 0.00 0.00 79 1010.8
20260506081839 58 204 0.0 0.0 0.00 0.00 0.00 79 1010.8
20260506081338 58 204 0.0 0.0 0.00 0.00 0.00 79 1010.8
20260506080835 58 204 0.0 0.0 0.00 0.00 0.00 79 1010.8
20260506080331 58 204 0.0 0.0 0.00 0.00 0.00 78 1010.8
20260506073316 60 204 0.0 0.0 0.00 0.00 0.00 75 1010.8
20260506072812 60 204 0.0 0.0 0.00 0.00 0.00 73 1010.8
20260506072310 60 300 0.0 0.0 0.00 0.00 0.00 73 1010.5
20260506071808 60 300 0.9 0.9 0.00 0.00 0.00 73 1010.5
20260506071306 60 312 0.0 0.0 0.00 0.00 0.00 72 1010.8
20260506070802 60 342 0.0 0.0 0.00 0.00 0.00 72 1010.8